Home > Weather > Khon Kaen > Past weeks

Flag for Thailand Past Weather in Khon Kaen, Thailand — Yesterday and Last 2 Weeks

Now
84 °F

Passing clouds.


Feels Like: 96 °F
Forecast: 78 / 89 °F
Wind: 6 mph from Northeast

Location: Khon Kaen Airport

Current Time: Aug 28, 2016 at 7:33:38 PM

Latest Report: Aug 28, 2016 at 7:00 PM


Visibility: N/A

Pressure: 29.71 "Hg

Humidity: 84%

Dew Point: 79 °F

Location of Khon KaenLocation

Past Weather in Khon Kaen — Graph

°F

Khon Kaen Temperature Yesterday

Maximum temperature yesterday: 90 °F (at 4:00 PM)
Minimum temperature yesterday: 73 °F (at 6:00 PM)
Average temperature yesterday: 80 °F

High & Low Weather Summary for the Past Weeks

 TemperatureHumidityPressure
High95 °F (Aug 21, 2:00 PM)100% (Aug 16, 4:00 AM)29.83 "Hg (Aug 16, 4:00 AM)
Low73 °F (Aug 23, 12:00 AM)50% (Aug 21, 2:00 PM)29.47 "Hg (Aug 19, 2:00 AM)
Average82 °F82%29.64 "Hg
* Reported Aug 13 6:00 PM — Aug 28 6:00 PM, Khon Kaen, Weather by CustomWeather, © 2016

Note: Actual official high and low records may vary slightly from our data, if they occured in-between our weather recording intervals... More about our weather records

Advertising

Khon Kaen Weather History for the Previous 24 Hours

Scroll right to see more
 ConditionsComfort  
Time TempWeatherWind HumidityBarometerVisibility
6:00 PM
Sun, Aug 28
86 °FScattered clouds.1 mph75%29.68 "HgN/A
5:00 PM91 °FScattered clouds.1 mph56%29.68 "HgN/A
4:00 PM91 °FScattered clouds.2 mph59%29.68 "HgN/A
3:00 PM91 °FScattered clouds.3 mph59%29.71 "HgN/A
2:00 PM88 °FPartly sunny.3 mph70%29.74 "HgN/A
1:00 PM88 °FScattered clouds.5 mph70%29.77 "HgN/A
12:00 PM88 °FBroken clouds.3 mph66%29.80 "HgN/A
11:00 AM88 °FPartly sunny.3 mph66%29.80 "HgN/A
9:00 AM79 °FLow clouds.5 mph94%29.83 "HgN/A
8:00 AM79 °FBroken clouds.5 mph100%29.83 "Hg5 mi
7:00 AM77 °FMostly cloudy.3 mph100%29.83 "Hg4 mi
6:00 AM75 °FFog.2 mph100%29.80 "Hg3 mi
5:00 AM75 °FPartly cloudy.2 mph100%29.80 "HgN/A
4:00 AM75 °FPartly cloudy.3 mph100%29.80 "HgN/A
3:00 AM75 °FPartly cloudy.2 mph100%29.80 "Hg5 mi
2:00 AM75 °FPartly cloudy.2 mph100%29.80 "Hg5 mi
1:00 AM75 °FPartly cloudy.5 mph100%29.83 "Hg5 mi
12:00 AM75 °FPartly cloudy.2 mph100%29.83 "HgN/A
11:00 PM
Sat, Aug 27
75 °FLight rain. Mostly cloudy.No wind100%29.83 "Hg6 mi
10:00 PM75 °FPartly cloudy.No wind100%29.83 "HgN/A
9:00 PM75 °FMostly cloudy.2 mph100%29.83 "Hg5 mi
8:00 PM75 °FLight rain. Mostly cloudy.1 mph100%29.80 "Hg5 mi
7:00 PM73 °FPassing clouds.No wind100%29.77 "Hg4 mi
Weather by CustomWeather, © 2016

See weather overviewHow to use our weather pages